sat.trackr.live / text

‹ back to catalog

YUNHAI-1 02

NORAD 44547 · 2019-063A

PAYLOAD ACTIVE UNKNOWN

§ Identity

Operator
Country
PRC
Launch date
2019-09-25
Launch site
JSC
Launch vehicle
Mass (kg)
RCS (m²)

External: N2YO · Heavens-Above · Gunter

§ Orbital elements

Epoch: 2026-05-25T03:43:10.399008Z

Period
100.51 min
Inclination
98.4125°
Eccentricity
0.0004956
Mean motion
14.32688891 rev/d
Perigee alt
779.2 km
Apogee alt
786.3 km
Semi-major
7,160.9 km
B*
1.1593e-4
RAAN
156.2715°
Arg perigee
212.1872°
Mean anomaly
147.9010°
Rev number
34,857

§ Raw data

YUNHAI-1 021 44547U 19063A   26145.15498147  .00000273  00000+0  11593-3 0  99932 44547  98.4125 156.2715 0004956 212.1872 147.9010 14.32688891348578

JSON: /api/v1/satellites/44547 · /tle

For live sub-satellite position, see the globe view (requires WebGL).

§ Visibility from observer

Set your observer location to see the next 7 days of passes ≥ 10°. The values pass through the URL so the page stays shareable.

No JS? Fill the form by hand. The geolocation button needs JavaScript.

§ Radio — SatNOGS DB

ModeDescriptionDownlinkUplink
BPSK L-band data 1.704 GHz

1 transmitter · refreshed weekly from db.satnogs.org